Regional Weather Roundup
Issued by NWS

Home | Current Version | Previous Version | Text Only | Print | Product List | Glossary On
Versions: 1 2 3 4 5 6 7 8 9 10 11 12 13 14 15 16 17 18 19 20 21 22 23 24 25 26 27 28 29 30 31 32 33 34 35 36 37 38 39 40 41 42 43 44 45 46 47 48 49 50
000
ASUS43 KDTX 081801
RWRMI
MICHIGAN HOURLY REGIONAL WEATHER ROUNDUP
NATIONAL WEATHER SERVICE DETROIT/PONTIAC MI
100 PM EST THU DEC 08 2016

NOTE: "FAIR" INDICATES FEW OR NO CLOUDS BELOW 12,000 FEET WITH NO
SIGNIFICANT WEATHER AND/OR OBSTRUCTION TO VISIBILITY.

MIZ047>049-052>055-059>063-066>070-074>076-081>083-081900-
SOUTHEAST LOWER MICHIGAN

CITY           SKY/WX    TMP DP  RH WIND       PRES   REMARKS
ADRIAN         CLOUDY    24  17  74 W14G22    30.14S WCI  12
6HR MIN TEMP:  24; 6HR MAX TEMP:  25; 6HR PCP: TRACE;

ALMA           FLURRIES  27  18  69 W14G23    30.07S WCI  16
ANN ARBOR      LGT SNOW  25  21  85 SW14      30.09S FOG     WCI  13
BAD AXE        CLOUDY    27  17  66 W15G26    29.98F WCI  15
6HR MIN TEMP:  25; 6HR MAX TEMP:  27;

CARO           FLURRIES  27  20  73 W15G26    30.01F WCI  16
DETROIT CITY   LGT SNOW  27  23  85 W13       30.07S FOG     WCI  16
6HR MIN TEMP:  27; 6HR MAX TEMP:  29; 6HR PCP: TRACE;

DETROIT        LGT SNOW  27  21  78 W17G29    30.10S WCI  14
6HR MIN TEMP:  27; 6HR MAX TEMP:  29; 6HR PCP: TRACE;

FLINT          FLURRIES  27  17  66 W23G32    30.05S WCI  12
6HR MIN TEMP:  25; 6HR MAX TEMP:  30; 6HR PCP: TRACE;

GROSSE ILE     LGT SNOW  27  20  75 W22       30.09S WCI  13
6HR MIN TEMP:  26; 6HR MAX TEMP:  28;

HILLSDALE      LGT SNOW  23  18  80 W16G24    30.11R WCI  10
HOWELL         LGT SNOW  26  20  80 W17G24    30.06S WCI  12
6HR MIN TEMP:  25; 6HR MAX TEMP:  27;


CITY           SKY/WX    TMP DP  RH WIND       PRES   REMARKS
JACKSON        FLURRIES  25  18  74 W14G22    30.09S WCI  13
6HR MIN TEMP:  24; 6HR MAX TEMP:  26; 6HR PCP:  0.02;

LAMBERTVILLE   FLURRIES  27  19  71 W10G22    30.15S WCI  17
6HR MIN TEMP:  27; 6HR MAX TEMP:  28;

LANSING        FLURRIES  26  19  74 W15G23    30.09S WCI  14
6HR MIN TEMP:  25; 6HR MAX TEMP:  27; 6HR PCP:  0.02;

LAPEER         NOT AVBL
MASON          LGT SNOW  25  22  89 W15G22    30.08S WCI  12
MONROE         LGT SNOW  26  22  84 W14G22    30.11S WCI  15
6HR MIN TEMP:  26; 6HR MAX TEMP:  28;

MT. CLEMENS    LGT SNOW  27  24  89 W12       30.03S WCI  17
6HR MIN TEMP:  27; 6HR MAX TEMP:  29; 6HR PCP:  0.01;

PONTIAC        LGT SNOW  25  21  85 W16       30.03S FOG     WCI  12
6HR MIN TEMP:  25; 6HR MAX TEMP:  27; 6HR PCP: TRACE;

PORT HOPE        N/A     29  17  61 W9G25     29.94S WCI  20
6HR MIN TEMP:  26; 6HR MAX TEMP:  29;

PORT HURON     CLOUDY    28  18  64 W7G17     30.02F WCI  21
TRI CITIES     CLOUDY    28  18  66 W20G28    30.04S WCI  15
6HR MIN TEMP:  26; 6HR MAX TEMP:  28; 6HR PCP: TRACE;

MIDLAND        CLOUDY    29  17  60 W15G21    30.03S WCI  17
6HR MIN TEMP:  26; 6HR MAX TEMP:  29;

TROY           CLOUDY    30  18  61 SW13G24   30.07S WCI  20
SAGINAW HB     CLOUDY    30  18  59 W15G29    30.04S WCI  19
$$
MIZ043>046-050>051-056>058-064>065-071>073-077>080-081900-
SOUTHWEST LOWER MICHIGAN

CITY           SKY/WX    TMP DP  RH WIND       PRES   REMARKS
BATTLE CREEK   LGT SNOW  25  20  81 W12       30.13R WCI  14
6HR MIN TEMP:  24; 6HR MAX TEMP:  27; 6HR PCP:  0.01;

BENTON HARBOR  CLOUDY    24  17  74 W24G33    30.21R WCI   8
6HR MIN TEMP:  24; 6HR MAX TEMP:  28; 6HR PCP: TRACE;

BIG RAPIDS     FLURRIES  27  19  74 W12G20    30.04S WCI  16
6HR MIN TEMP:  24; 6HR MAX TEMP:  27;

COLDWATER      LGT SNOW  23  19  85 W16       30.15R WCI   9
6HR MIN TEMP:  23; 6HR MAX TEMP:  25;

FREMONT        LGT SNOW  25  20  82 W10       30.10S WCI  15
6HR MIN TEMP:  23; 6HR MAX TEMP:  25;

HOLLAND        LGT SNOW  26  19  74 W14G22    30.15R WCI  14
6HR MIN TEMP:  25; 6HR MAX TEMP:  27; 6HR PCP:  0.04;

GRAND RAPIDS   LGT SNOW  25  19  78 W14       30.12R WCI  13
6HR MIN TEMP:  24; 6HR MAX TEMP:  27; 6HR PCP: TRACE;

IONIA          FLURRIES  25  19  76 W17G23    30.09S WCI  12
6HR MIN TEMP:  25; 6HR MAX TEMP:  26;

KALAMAZOO      LGT SNOW  24  17  74 W16       30.15R WCI  11
6HR MIN TEMP:  24; 6HR MAX TEMP:  27; 6HR PCP:  0.01;

LUDINGTON      CLOUDY    28  23  81 NW14G22   30.07S WCI  17
6HR MIN TEMP:  23; 6HR MAX TEMP:  28; 6HR PCP:  0.01;

MARSHALL       LGT SNOW  25  21  84 W13G21    30.12R WCI  13
6HR MIN TEMP:  25; 6HR MAX TEMP:  27;

MOUNT PLEASANT FLURRIES  28  20  71 W18       30.03S WCI  15
6HR MIN TEMP:  25; 6HR MAX TEMP:  28;

MUSKEGON       LGT SNOW  27  20  75 W14G24    30.13S WCI  16
6HR MIN TEMP:  26; 6HR MAX TEMP:  27; 6HR PCP:  0.01;

SOUTH HAVEN    CLOUDY    25  19  77 W12G22    30.18R WCI  15
$$
MIZ016>042-081900-
NORTHERN LOWER MICHIGAN

CITY           SKY/WX    TMP DP  RH WIND       PRES   REMARKS
ALPENA         CLOUDY    31  22  69 W15G21    29.89S WCI  20
6HR MIN TEMP:  27; 6HR MAX TEMP:  31; 6HR PCP: TRACE;

BEAVER ISLAND  PTSUNNY   30  23  74 NW10G17   29.96R WCI  21
BELLAIRE       LGT SNOW  32  27  83 W7        29.96R WCI  25
6HR MIN TEMP:  26; 6HR MAX TEMP:  33;

CADILLAC       LGT SNOW  26  21  81 W9        29.97S WCI  17
CHARLEVOIX     SNOW      30  27  88 NW8G23    29.97R VSB 1/2 WCI  22
FRANKFORT      CLOUDY    31  26  80 NW12G22   30.03R WCI  22
GAYLORD        MOSUNNY   29  22  75 W10G18    29.89S WCI  20
6HR MIN TEMP:  24; 6HR MAX TEMP:  29; 6HR PCP:  0.01;

GRAYLING       SNOW      28  25  89 W14G21    29.92F VSB 1/2 WCI  16
6HR MIN TEMP:  24; 6HR MAX TEMP:  28;

HARBOR SPRINGS LGT SNOW  31  21  66 NW15G22   29.94R WCI  21
HOUGHTON LAKE  FLURRIES  26  20  77 W17G23    29.95F WCI  13
6HR MIN TEMP:  22; 6HR MAX TEMP:  26; 6HR PCP: TRACE;

MANISTEE       FLURRIES  30  24  78 W14G23    30.04S WCI  19
OSCODA         CLOUDY    32  17  55 MISG      29.92F
6HR MIN TEMP:  26; 6HR MAX TEMP:  32;

PELLSTON       FLURRIES  30  21  69 NW15      29.93R WCI  19
6HR MIN TEMP:  27; 6HR MAX TEMP:  31; 6HR PCP:  0.01;

ROGERS CITY    CLOUDY    32  24  73 W14G20    29.90R WCI  22
TRAVERSE CITY  LGT SNOW  31  25  78 W13       29.98R WCI  21
6HR MIN TEMP:  25; 6HR MAX TEMP:  31; 6HR PCP: TRACE;

$$
MIZ007>008-015-081900-
EASTERN UPPER MICHIGAN

CITY           SKY/WX    TMP DP  RH WIND       PRES   REMARKS
KINROSS        FLURRIES  29  19  66 N22G30    29.89R WCI  15
6HR MIN TEMP:  20; 6HR MAX TEMP:  30; 6HR PCP: TRACE;

MACKINAC ISLAN LGT SNOW  29  24  81 N14G21    29.91R VSB 1   WCI  18
6HR MIN TEMP:  26; 6HR MAX TEMP:  31;

NEWBERRY       MOSUNNY   28  18  65 NW14G22   29.94R WCI  17
6HR MIN TEMP:  20; 6HR MAX TEMP:  28;

S. S. MARIE    MIX PCPN  30  16  56 N9G20     29.90R WCI  22
6HR MIN TEMP:  23; 6HR MAX TEMP:  30; 6HR PCP:  0.05;

$$
MIZ004>006-011>014-085-081900-
CENTRAL UPPER MICHIGAN

CITY           SKY/WX    TMP DP  RH WIND       PRES   REMARKS
MANISTIQUE     CLOUDY    30  27  88 N8        29.98R WCI  22
6HR MIN TEMP:  21; 6HR MAX TEMP:  30;

ESCANABA       FLURRIES  30  24  78 NW13      30.04R WCI  20
6HR MIN TEMP:  21; 6HR MAX TEMP:  32; 6HR PCP: TRACE;

MENOMINEE      PTSUNNY   32  19  58 MISG        N/A
6HR MIN TEMP:  19; 6HR MAX TEMP:  32;

SAWYER-GWINN   LGT SNOW  25  23  93 NW14G23   30.02R WCI  13
$$
MIZ001>003-009>011-084-081900-
WESTERN UPPER MICHIGAN

CITY           SKY/WX    TMP DP  RH WIND       PRES   REMARKS
IRON MOUNTAIN  PTSUNNY   30  17  58 NW21      30.04R WCI  17
6HR MIN TEMP:  19; 6HR MAX TEMP:  31; 6HR PCP: TRACE;

HOUGHTON       LGT SNOW  27  19  72 NW18G24   30.07R WCI  14
6HR MIN TEMP:  26; 6HR MAX TEMP:  29; 6HR PCP:  0.04;

COPPER HARBOR    N/A     30  25  81 NE28G35   30.05R WCI  15
6HR MIN TEMP:  29; 6HR MAX TEMP:  32;

IRONWOOD       LGT SNOW  26  22  84 NW12      30.16R FOG     WCI  16
6HR MIN TEMP:  24; 6HR MAX TEMP:  27; 6HR PCP:  0.04;

$$

ABBREVIATIONS USED IN REMARKS
   TC - TEMPERATURE IN CELSIUS
  WCI - WIND CHILL INDEX
   HX - HEAT INDEX
  VSB - VISIBILITY





USA.gov is the U.S. government's official web portal to all federal, state and local government web resources and services.